GW3700 Weather Reports


time (UTC)temp
C
wind
direction
speed
KPH
gust
KPH
rain 1hr
cm
rain 24hr
cm
rain mn
cm
humidity
%
barometer
mb
20260504044551 18 95 1.6 6.4 0.00 0.00 0.00 77 1011.4
20260504043051 18 86 3.2 8.0 0.00 0.00 0.00 74 1011.4
20260504041549 18 123 1.6 6.4 0.00 0.00 0.00 77 1011.4
20260504040110 18 182 1.6 6.4 0.00 0.00 0.00 76 1011.4
20260504034547 18 139 1.6 6.4 0.00 0.00 0.00 76 1011.4
20260504033045 18 187 0.0 3.2 0.00 0.00 0.00 76 1011.4
20260504031541 18 167 0.0 4.8 0.00 0.00 0.00 73 1011.7
20260504030038 18 165 1.6 6.4 0.00 0.00 0.00 77 1011.9
20260504024534 17 173 3.2 9.7 0.00 0.00 0.00 77 1012.1
20260504023033 17 228 4.8 11.3 0.00 0.00 0.00 79 1012.3
20260504021531 17 206 6.4 11.3 0.00 0.00 0.00 79 1012.4
20260504020029 17 226 6.4 14.5 0.00 0.00 0.00 80 1012.8
20260504014528 17 226 8.0 19.3 0.00 0.00 0.00 78 1013.0
20260504013025 17 209 6.4 14.5 0.00 0.00 0.00 76 1013.4
20260504011524 17 240 6.4 17.7 0.00 0.00 0.00 78 1013.5
20260504010022 17 202 3.2 11.3 0.00 0.00 0.00 79 1013.6
20260504004521 16 238 4.8 11.3 0.00 0.00 0.00 82 1013.7
20260504003014 16 224 4.8 11.3 0.00 0.00 0.00 88 1013.7
20260504001511 16 217 1.6 6.4 0.00 0.00 0.00 96 1013.8
20260504000009 15 247 0.0 8.0 0.00 0.00 0.00 97 1013.9
20260503234509 14 252 1.6 6.4 0.00 0.00 0.00 98 1014.0
20260503233008 14 271 1.6 8.0 0.00 0.00 0.00 98 1014.2
20260503231507 15 245 1.6 9.7 0.00 0.00 0.00 98 1014.2
20260503230006 15 278 1.6 9.7 0.00 0.00 0.00 99 1014.3
20260503224507 15 265 4.8 11.3 0.00 0.00 0.00 99 1014.2
20260503223005 15 266 3.2 9.7 0.00 0.00 0.00 99 1013.9
20260503221504 15 284 3.2 8.0 0.00 0.00 0.00 99 1013.8
20260503220004 15 283 1.6 6.4 0.00 0.00 0.00 99 1013.7
20260503214503 15 272 1.6 4.8 0.00 0.00 0.00 99 1013.5
20260503213002 15 258 1.6 6.4 0.00 0.00 0.00 99 1013.3
20260503211600 -17 0.0 0.0 0.00 0.00 0.00 1013.2
20260503210056 -17 0.0 0.0 0.00 0.00 0.00 1012.8
20260503204552 -17 0.0 0.0 0.00 0.00 0.00 1012.8
20260503203047 -17 0.0 0.0 0.00 0.00 0.00 1012.9
20260503201542 -17 0.0 0.0 0.00 0.00 0.00 1012.7
20260503200038 -17 0.0 0.0 0.00 0.00 0.00 1012.7
20260503194534 -17 0.0 0.0 0.00 0.00 0.00 1012.6
20260503193039 -17 0.0 0.0 0.00 0.00 0.00 1012.6
20260503191526 -17 0.0 0.0 0.00 0.00 0.00 1012.7
20260503190027 -17 0.0 0.0 0.00 0.00 0.00 1012.4
20260503184526 -17 0.0 0.0 0.00 0.00 0.00 1012.3
20260503183019 -17 0.0 0.0 0.00 0.00 0.00 1012.4
20260503181518 15 26 0.0 0.0 0.00 0.00 0.00 99 1012.5
20260503180020 16 38 0.0 0.0 0.00 0.00 0.00 99 1012.6
20260503174519 16 77 0.0 1.6 0.00 0.00 0.00 99 1012.7
20260503173023 16 94 0.0 3.2 0.00 0.00 0.00 99 1012.6
20260503171522 16 89 3.2 12.9 0.00 0.00 0.00 99 1012.6
20260503150106 16 319 1.6 3.2 0.00 0.00 0.00 98 1014.5
20260503081525 23 25 4.8 16.1 0.00 0.00 0.00 61 1012.0
20260503071524 23 354 3.2 9.7 0.00 0.00 0.00 64 1012.2
20260503054512 24 41 0.0 8.0 0.00 0.00 0.00 62 1013.0
20260503053011 24 351 4.8 12.9 0.00 0.00 0.00 60 1013.1